Regional Weather Roundup
Issued by NWS

Home | Current Version | Previous Version | Text Only | Print | Product List | Glossary Off
Versions: 1 2 3 4 5 6 7 8 9 10 11 12 13 14 15 16 17 18 19 20 21 22 23 24 25 26 27 28 29 30 31 32 33 34 35 36 37 38 39 40 41 42 43 44 45 46 47 48 49 50

000
ASUS45 KBOI 220610
RWRID
WEATHER ROUNDUP FOR IDAHO
NATIONAL WEATHER SERVICE BOISE ID
1200 AM MDT MON SEP 22 2014

NOTE: "FAIR" INDICATES FEW OR NO CLOUDS BELOW 12000 FEET
WITH NO SIGNIFICANT WEATHER AND/OR OBSTRUCTIONS TO VISIBILITY

IDZ012-014-220700-
SOUTHWEST IDAHO


CITY           SKY/WX    TMP DP  RH WIND       PRES   REMARKS
BOISE          CLOUDY    69  49  48 SE9       30.03S
CALDWELL       CLOUDY    64  52  63 SE13      30.03S
MOUNTAIN HOME  CLOUDY    61  61 100 SE8       30.05S
$$

IDZ016-017-220700-
SOUTHCENTRAL IDAHO


CITY           SKY/WX    TMP DP  RH WIND       PRES   REMARKS
BURLEY         FOG       53  52  96 CALM      30.10S VSB 3/4
JEROME         MOCLDY    57  53  86 NE9       30.10F
TWIN FALLS     MOCLDY    61  51  70 SE3       30.10F
$$

IDZ019>023-220700-
SOUTHEAST IDAHO


CITY           SKY/WX    TMP DP  RH WIND       PRES   REMARKS
IDAHO FALLS    CLOUDY    59  56  89 N3        30.18S
POCATELLO      CLEAR     54  54 100 NE3       30.15S
REXBURG        HVY RAIN  57  55  93 CALM      30.19S FOG
$$

IDZ006-010-011-018-031-032-220700-
CENTRAL IDAHO MOUNTAINS


CITY           SKY/WX    TMP DP  RH WIND       PRES   REMARKS
MCCALL         MOCLDY    57  43  59 CALM      30.10S
HAILEY         DRIZZLE   55  54  94 SE6       30.17R
STANLEY          N/A     57  41  55 SE5       30.17S
SALMON         MOCLDY    63  45  51 E6        30.00S
CHALLIS        MOCLDY    61  45  55 SW5       30.10R
$$

IDZ002-004-006-007-026-220700-
NORTHERN IDAHO


CITY           SKY/WX    TMP DP  RH WIND       PRES   REMARKS
LEWISTON       MOCLDY    73  40  30 S5        29.86R
LOWELL           N/A     60  55  83 NW5       29.91R
COEUR D`ALENE  PTCLDY    57  46  67 E5        29.90S
MULLAN PASS    MOCLDY    64  38  38 W6        30.12F
$$


USA.gov is the U.S. government's official web portal to all federal, state and local government web resources and services.